GFSWCAN_prec_cthk_051.txt.gz
RH
87 76 74 71 71 72 79 92 83 82 84 87 98 98 98 98 96 93 84 91 97 95 89 90 93 91 71 64 68 80 63 88 79 56 44 47 55 55 56 56 70 83 78 79 70 69 65 44 40 38 32 36 46 36
84 75 78 76 79 83 79 86 92 90 92 95 98 98 97 98 97 95 98 97 97 98 98 88 97 91 74 77 61 71 65 62 51 56 39 39 60 67 62 63 55 66 78 75 67 61 54 50 46 45 49 49 46 40
83 81 89 83 83 85 84 96 94 96 98 98 98 96 94 92 94 98 97 97 98 97 97 93 90 77 86 84 85 77 63 65 65 53 46 43 58 56 66 46 46 47 50 63 76 69 64 60 53 53 52 53 55 48
85 87 91 85 84 89 88 93 94 98 96 96 96 94 91 90 96 97 97 95 96 97 97 91 78 71 75 87 76 76 62 72 76 63 59 50 46 43 56 43 38 38 42 47 49 58 63 66 57 60 64 61 60 51
89 88 93 96 94 90 84 79 85 89 91 91 92 93 98 97 99 99 98 97 96 91 89 77 66 60 74 90 87 73 87 73 68 61 53 50 38 34 43 42 38 39 41 46 44 37 48 54 57 65 64 63 63 59
96 96 94 96 94 94 88 84 85 88 96 97 99 98 98 96 94 94 98 98 97 93 72 68 68 66 68 83 97 89 78 75 71 52 56 38 30 38 46 42 35 36 39 47 53 50 46 52 57 60 64 70 68 63
97 97 97 95 97 98 96 97 98 98 98 99 98 97 99 97 97 97 95 91 88 80 77 67 84 79 78 83 92 80 72 65 63 69 66 54 46 40 44 42 25 30 39 47 52 45 38 40 46 55 66 70 67 66
97 98 97 97 96 96 95 98 98 97 97 98 99 98 98 97 97 94 85 81 74 75 71 85 97 92 84 78 79 74 76 75 76 77 69 62 59 65 64 40 29 27 32 41 47 44 44 49 45 49 60 66 69 71
84 97 97 97 98 98 97 96 97 97 97 97 97 97 97 97 97 94 72 63 68 75 79 89 98 95 96 95 90 85 91 81 65 59 54 58 59 65 69 59 50 48 45 48 46 47 54 59 61 63 66 65 67 65
57 75 96 98 98 98 98 96 95 94 94 93 92 90 92 88 73 67 73 65 67 76 87 89 91 96 98 97 98 98 99 95 81 79 76 79 77 79 73 64 57 54 53 54 55 52 54 57 56 57 61 68 70 70
65 56 65 88 97 97 95 93 90 88 90 91 88 87 70 67 72 76 75 74 79 81 79 74 82 92 94 96 97 95 92 88 85 86 78 84 82 77 74 71 65 61 60 63 59 61 56 54 62 66 69 70 72 74
74 60 55 58 74 88 91 89 87 89 84 77 70 73 77 81 82 81 79 79 76 75 81 77 81 81 76 87 95 97 99 90 90 87 91 86 79 74 71 75 75 70 66 61 61 61 63 74 77 75 72 73 75 72
86 78 70 61 60 67 70 72 74 66 57 67 77 75 81 81 83 85 82 78 78 84 95 84 82 80 86 98 99 96 87 89 98 98 96 92 91 87 87 91 92 89 84 80 81 84 85 85 87 87 87 85 84 89
77 77 79 82 77 74 75 79 81 73 66 78 80 78 86 86 84 87 92 96 93 96 84 83 84 79 84 90 96 92 92 93 94 96 94 96 97 97 98 98 98 98 98 97 97 98 97 97 98 98 98 98 98 98
80 83 85 89 90 90 88 88 77 78 85 78 69 71 80 88 88 87 90 97 98 97 95 82 76 84 96 98 95 92 93 91 88 89 91 93 96 97 97 98 98 98 97 97 97 96 97 97 97 97 97 97 97 97
84 83 84 85 80 80 82 78 77 81 78 66 70 78 79 82 82 81 84 91 96 97 98 97 98 98 96 95 94 96 92 91 91 92 93 94 94 97 97 97 97 97 97 97 97 97 97 97 97 97 97 96 97 97
74 77 81 79 83 89 88 83 75 71 73 76 87 90 84 85 88 91 91 91 90 93 94 95 96 96 96 94 92 93 95 95 96 97 97 98 97 97 97 98 98 98 98 98 97 97 97 97 97 97 97 97 97 96
73 78 84 91 91 91 89 91 90 92 93 94 95 91 91 95 96 97 97 96 94 95 97 96 95 94 95 95 95 96 96 97 97 97 98 97 97 97 97 97 97 97 97 97 97 97 97 97 97 97 97 97 97 97
82 86 93 96 96 94 93 93 94 95 96 97 97 97 97 97 97 97 97 96 95 94 94 92 93 94 95 96 96 97 97 98 97 98 98 97 97 97 97 97 97 97 97 97 97 97 97 97 97 97 97 97 97 97
97 97 98 96 90 90 94 96 90 90 93 92 91 85 83 84 83 82 82 83 84 85 87 90 94 96 96 96 97 96 96 96 97 97 97 97 97 97 97 97 97 98 98 97 97 98 98 98 98 98 98 98 98 98
96 97 97 91 89 87 93 91 81 75 74 71 70 68 70 69 67 64 61 58 49 59 69 75 78 79 79 79 79 79 80 82 85 88 89 91 93 96 97 97 97 97 97 97 97 97 97 97 97 98 97 97 96 96
97 96 92 88 86 78 70 66 62 60 55 54 50 48 48 44 42 39 40 39 46 52 55 57 58 60 62 63 63 63 64 64 65 67 69 72 74 76 76 77 78 81 83 87 87 87 84 81 84 80 77 74 68 56
80 73 68 58 42 41 41 41 36 38 38 37 37 36 35 36 35 34 39 43 49 52 53 54 55 56 58 60 60 60 60 59 57 56 56 56 56 57 56 55 53 51 49 47 45 43 41 38 35 34 32 30 28 27
37 32 24 26 27 30 29 31 31 32 36 38 38 39 38 36 34 38 42 47 49 51 52 52 52 52 52 52 52 52 53 52 52 51 50 47 44 42 41 40 39 38 37 35 32 30 28 27 27 28 28 29 29 29
21 26 25 25 26 25 31 34 35 34 39 38 39 40 38 39 40 42 43 47 49 50 51 51 51 52 54 56 56 53 49 45 42 41 42 45 46 45 41 36 32 28 28 28 28 30 30 31 31 31 31 30 29 29
28 30 31 31 30 31 31 32 33 36 36 39 40 40 41 39 41 42 44 48 49 51 52 54 56 58 58 56 53 49 47 45 44 43 40 38 36 36 33 30 30 31 31 32 34 34 33 32 30 29 28 28 27 27
32 33 32 32 31 30 32 32 31 31 34 38 38 38 37 39 41 44 45 46 49 51 53 55 58 58 54 49 48 46 44 45 45 43 38 30 25 25 27 33 33 32 34 29 29 29 29 28 28 28 28 28 29 29
34 30 30 31 30 28 30 30 31 32 33 34 32 35 36 39 41 43 43 46 49 52 54 54 51 49 49 50 53 56 53 49 44 35 35 36 35 33 32 32 29 26 22 22 22 24 29 30 30 30 29 29 30 30
33 29 24 28 28 32 34 34 34 35 35 35 33 33 34 35 38 41 44 47 50 52 52 51 52 53 54 56 55 53 48 38 37 34 36 37 37 35 29 25 25 24 25 26 27 26 27 28 29 30 31 33 36 37
30 30 26 29 33 36 37 37 36 34 33 31 30 35 37 38 39 43 46 49 51 52 54 56 59 60 58 54 49 37 27 25 27 31 36 34 32 26 26 26 26 26 27 28 30 32 33 34 38 41 43 43 45 42
32 31 32 35 37 40 39 38 37 35 33 34 37 37 38 39 42 45 48 50 52 53 55 53 51 48 42 33 31 35 37 30 29 28 27 25 25 28 27 27 28 30 31 32 33 34 35 36 41 44 46 45 46 49
32 33 33 38 43 43 42 42 41 40 40 39 39 37 39 43 45 44 46 47 48 47 46 43 40 36 32 33 31 30 30 30 28 26 25 25 27 27 28 29 31 32 33 34 34 34 35 36 37 40 42 44 46 49
40 36 37 41 43 44 43 42 40 41 40 40 41 41 42 42 43 42 42 43 45 44 44 42 35 32 31 30 31 30 29 28 26 26 26 27 27 29 30 32 33 34 34 35 35 35 36 37 39 41 43 44 46 49

GFSWCAN_prec_cthk_057.txt.gz
RH
88 90 89 84 82 77 74 74 74 74 73 69 68 70 77 86 96 99 91 85 81 95 96 89 86 78 74 78 76 67 84 80 78 73 67 66 73 73 72 64 68 77 88 91 96 94 91 69 60 57 56 48 48 45
89 88 88 85 81 71 72 69 71 74 73 75 77 73 76 85 86 98 99 93 87 96 98 86 87 81 96 82 72 77 80 74 67 65 64 63 62 59 55 70 67 72 64 68 72 77 71 67 68 70 68 60 62 55
95 88 90 90 79 78 82 81 88 85 84 87 84 81 80 86 95 97 97 98 98 95 97 93 89 86 85 77 70 83 81 78 67 64 71 69 65 59 63 56 54 54 56 55 53 63 65 70 71 72 74 75 66 65
93 93 90 88 87 83 85 92 95 94 83 84 94 93 90 93 98 98 96 91 93 92 93 87 80 89 81 78 82 81 78 80 77 79 74 78 73 70 58 52 51 47 48 43 43 60 70 76 71 65 69 74 70 67
97 95 90 90 84 85 95 98 96 90 88 86 95 94 95 96 93 93 92 88 97 90 95 90 88 84 78 75 80 73 93 91 89 86 83 81 74 86 68 63 56 41 33 41 42 43 58 79 66 61 67 68 73 70
98 99 88 88 86 86 96 98 96 92 84 83 91 83 85 90 94 96 99 99 98 92 82 94 80 77 82 82 91 91 93 87 84 95 91 82 78 76 86 67 56 42 35 31 37 42 54 50 52 53 53 65 66 68
97 98 91 86 87 84 89 98 97 95 95 94 98 98 99 91 97 92 93 81 79 78 80 87 86 82 80 82 81 84 83 86 89 91 98 87 86 85 81 74 72 70 54 44 42 47 48 43 42 46 49 55 59 68
98 98 96 89 81 84 83 91 97 98 98 98 99 98 98 97 98 95 91 82 79 78 84 85 88 84 81 80 78 74 72 71 83 82 91 93 86 95 95 82 69 67 62 53 52 54 54 50 43 46 52 56 51 51
98 98 98 94 95 89 87 89 94 96 98 98 99 98 94 91 93 93 88 87 91 90 87 80 80 83 85 86 80 79 74 77 72 88 87 90 93 98 88 78 72 66 60 61 63 60 55 48 49 47 46 47 52 51
98 98 99 98 97 98 98 98 97 92 93 96 94 92 98 97 96 98 98 98 98 97 91 87 82 74 84 95 80 77 76 74 82 87 87 96 95 87 85 84 90 81 72 70 66 61 61 65 65 61 60 61 60 62
97 98 98 98 97 94 95 96 94 93 92 88 87 88 94 93 88 87 89 92 91 89 84 82 78 81 85 94 92 80 84 80 83 83 89 98 97 98 92 87 85 84 84 85 85 83 77 75 74 73 67 63 63 72
98 98 98 96 93 92 92 92 88 86 83 82 80 82 84 89 94 85 90 88 85 91 88 79 77 78 87 95 91 86 87 89 87 88 90 96 92 92 88 84 84 85 81 79 77 75 78 77 78 76 76 71 67 68
97 97 97 95 94 95 94 92 89 84 82 82 86 94 94 93 95 93 95 90 82 94 89 87 89 94 98 98 94 89 85 89 94 89 92 88 83 81 83 83 79 77 74 85 88 88 85 84 81 79 80 79 76 75
93 92 90 88 88 88 86 84 79 77 79 79 78 81 78 80 84 84 83 80 87 90 92 93 95 96 97 98 97 91 85 86 89 92 87 80 81 86 86 87 87 91 93 92 90 87 86 89 93 94 93 90 89 89
85 81 75 72 71 70 74 75 71 65 62 64 69 78 83 87 87 89 88 89 89 87 85 86 95 96 98 97 97 97 95 94 93 97 95 91 85 88 94 95 96 96 95 93 91 90 91 93 94 96 97 96 96 97
85 85 84 81 74 69 58 50 55 56 64 72 79 86 90 93 93 92 91 92 91 86 87 94 94 85 96 95 93 97 95 96 97 97 97 96 95 95 97 97 97 97 97 97 97 97 97 96 96 96 97 97 97 97
81 80 83 79 74 72 66 55 52 57 70 80 88 90 96 95 96 97 96 93 85 82 92 88 89 87 84 87 88 89 94 97 97 96 96 96 97 97 97 97 97 97 97 97 97 97 96 96 97 96 96 97 97 96
62 64 74 75 75 68 58 57 57 70 86 93 95 97 97 95 95 97 96 88 81 82 82 84 75 75 84 84 87 94 97 97 97 97 97 97 97 97 97 97 97 97 97 96 96 96 96 96 96 97 96 96 96 96
78 76 76 74 71 70 66 61 68 84 93 95 96 96 97 97 93 90 90 86 78 76 73 70 74 81 84 89 97 97 97 97 97 97 97 97 97 97 97 96 96 94 93 92 92 91 92 93 93 95 95 95 94 95
95 95 94 91 85 77 78 80 83 87 92 92 90 87 87 87 88 87 86 89 83 79 76 78 87 94 96 96 94 93 93 91 91 91 88 86 85 84 83 81 79 78 77 76 75 75 75 76 76 77 78 78 77 78
92 88 87 84 83 83 87 86 87 84 83 81 75 70 75 76 74 71 68 69 61 65 73 75 75 74 73 70 68 67 66 67 68 71 73 74 75 75 75 75 75 74 74 73 74 74 71 70 67 61 53 46 41 36
86 79 72 74 76 79 78 72 65 60 57 57 50 47 45 43 40 38 41 39 47 53 55 58 59 61 63 64 65 66 67 69 71 73 74 74 74 73 70 67 62 60 57 52 45 40 37 34 30 29 27 27 26 25
85 75 67 60 49 47 50 44 39 41 43 41 38 41 42 40 40 36 43 49 54 55 57 59 61 63 64 65 65 65 64 62 59 56 53 51 47 44 40 38 36 34 32 30 28 27 26 27 26 25 26 28 28 28
60 46 35 31 29 35 31 34 34 34 33 36 37 40 42 41 37 40 48 53 54 55 56 56 55 54 53 51 51 52 51 49 46 43 42 39 36 34 30 25 26 26 27 28 29 29 30 29 30 29 27 26 28 27
30 33 30 30 28 27 32 34 35 34 39 38 40 43 42 38 42 46 48 50 52 52 53 53 52 51 50 50 49 46 43 38 37 38 38 36 34 32 30 28 26 25 29 31 33 32 30 27 26 27 26 25 24 26
38 38 34 31 30 31 32 35 35 37 38 39 41 39 40 40 43 47 48 50 49 51 52 52 50 50 51 50 45 42 41 40 36 32 30 27 29 29 32 34 33 30 30 28 28 27 26 25 25 26 27 28 28 28
35 34 32 31 31 29 32 31 29 33 40 43 41 42 39 42 46 46 47 48 48 51 52 53 53 51 49 44 41 39 40 40 37 34 30 29 28 28 29 28 25 22 20 21 21 22 24 27 29 29 30 31 32 33
34 33 34 31 29 28 31 33 34 37 37 37 33 37 41 45 45 43 44 47 48 50 53 54 52 48 45 46 48 50 47 44 34 31 33 34 32 30 23 20 20 21 22 22 24 25 26 27 27 29 30 30 32 37
32 28 24 28 26 31 34 35 36 34 34 35 35 37 39 41 41 42 44 45 46 48 49 47 46 47 47 49 47 40 26 26 29 30 33 32 30 27 22 22 21 23 25 27 30 30 29 29 31 33 34 34 35 37
33 27 25 29 33 36 37 36 37 31 30 30 31 39 41 42 43 42 44 45 47 46 44 45 46 47 45 41 32 24 23 25 27 29 29 29 26 23 22 24 24 26 27 28 29 30 30 31 33 35 37 39 41 42
31 25 27 32 37 38 36 35 35 34 34 36 38 37 38 40 43 43 43 43 42 41 42 43 42 39 36 30 34 35 32 31 28 26 24 22 22 23 25 26 27 28 29 29 30 31 32 33 36 37 37 39 41 41
30 27 30 37 41 41 42 43 43 43 44 43 43 40 40 40 39 38 39 40 41 41 40 37 35 33 32 30 28 27 27 27 26 24 23 24 25 25 26 27 28 29 30 31 32 33 34 36 39 39 37 37 39 41
33 31 32 37 43 45 46 46 44 48 47 45 43 42 41 39 38 38 38 39 39 38 36 37 36 32 26 25 26 26 26 25 25 24 25 25 26 26 27 28 28 29 31 33 34 35 34 36 37 39 39 38 37 38

GFSWCAN_prec_cthk_060.txt.gz
RH
75 78 87 92 94 94 92 92 89 84 83 83 83 82 81 82 80 81 84 94 98 97 93 91 85 78 73 72 68 59 72 67 75 82 82 70 68 56 57 51 56 69 70 71 79 92 96 77 70 69 72 69 66 59
86 87 88 89 91 89 86 81 77 74 72 72 75 78 80 84 87 89 88 78 89 99 95 94 92 86 82 71 66 70 65 65 68 77 79 72 69 65 52 60 51 65 67 74 65 75 69 73 72 73 71 69 64 62
97 98 95 91 88 84 81 78 78 78 76 73 71 74 82 84 83 95 89 92 96 94 94 95 97 91 89 82 74 71 66 71 75 75 88 80 70 61 61 59 50 66 64 68 74 59 59 52 60 68 74 71 68 66
98 96 92 91 87 78 77 84 91 94 92 92 87 78 82 85 84 88 95 90 97 96 92 84 89 95 86 82 75 81 87 79 79 87 90 86 75 63 63 67 58 48 51 63 66 64 57 49 54 67 70 66 70 70
98 98 87 84 74 87 96 98 98 98 94 97 95 88 88 87 88 92 97 87 94 90 87 85 85 91 92 84 76 95 88 85 89 95 97 85 68 67 73 78 66 71 76 65 63 63 60 48 35 43 61 62 63 68
98 92 87 79 84 94 92 87 81 88 88 92 89 90 90 89 98 97 97 99 97 93 98 89 88 86 83 82 83 85 76 77 79 91 94 90 81 77 77 73 79 76 86 78 71 65 55 44 47 47 61 58 55 53
97 80 78 82 89 94 91 83 84 86 95 97 91 96 93 92 85 98 88 76 85 87 95 95 84 88 89 88 86 80 73 78 78 85 89 97 89 90 85 77 81 93 89 82 74 60 53 49 51 50 51 54 54 52
95 81 80 83 92 94 93 86 85 86 91 89 95 96 91 94 99 94 89 79 93 98 86 94 95 88 86 92 93 87 97 94 89 90 90 93 92 96 98 89 85 86 90 92 86 68 57 55 54 55 58 54 45 52
97 93 85 87 97 95 96 94 95 97 91 94 89 86 97 99 98 98 98 97 97 90 82 82 90 91 91 91 89 92 91 92 83 87 87 91 98 97 90 91 90 86 86 85 82 78 71 68 64 59 59 57 49 49
98 97 90 88 90 90 94 98 99 97 95 94 95 94 98 99 98 97 95 93 89 82 78 78 77 84 92 93 92 90 89 87 94 89 90 96 96 92 92 93 97 96 90 86 80 73 71 68 68 67 67 62 62 65
98 97 94 91 90 89 87 88 88 90 87 86 90 95 96 95 88 84 94 97 91 88 87 87 86 86 84 88 93 87 98 96 95 91 87 87 89 91 90 86 90 95 94 92 85 77 72 74 82 87 88 84 81 82
96 96 95 94 91 88 85 84 84 80 79 78 81 84 86 87 83 83 89 87 86 92 86 86 87 83 82 84 92 95 92 94 94 91 86 87 81 88 91 90 90 89 88 86 89 91 91 90 98 96 91 92 90 90
95 93 93 91 89 88 85 82 80 76 73 74 76 82 83 82 83 88 88 89 91 91 91 83 82 81 85 89 96 97 92 96 89 85 88 87 86 89 87 87 93 94 94 91 87 90 94 90 91 93 92 90 90 89
91 91 91 88 89 88 86 84 82 82 81 79 81 84 84 87 88 89 88 86 86 90 91 89 92 98 98 98 98 98 94 93 96 94 91 89 87 82 85 91 91 96 95 93 92 89 82 82 96 98 96 93 92 95
86 85 83 81 83 82 83 80 74 68 65 68 70 79 82 82 80 81 84 83 92 93 91 94 97 98 98 97 97 97 95 92 90 91 91 93 88 87 90 91 92 91 90 93 94 96 96 97 97 96 94 94 94 95
80 78 74 71 66 65 61 60 61 63 71 75 84 91 90 88 86 83 79 88 92 89 87 90 92 94 97 95 96 97 88 87 89 90 89 93 92 94 97 93 90 88 91 93 95 96 97 97 97 97 97 97 97 97
80 77 72 67 61 51 51 62 67 72 82 93 96 97 97 95 94 95 88 85 85 82 87 90 89 87 86 92 95 95 97 97 97 97 97 96 95 97 97 97 97 97 97 97 96 96 96 96 97 97 97 97 96 96
66 73 74 71 64 52 56 66 77 86 96 97 97 97 97 97 97 92 85 82 81 85 88 87 74 75 90 93 91 92 93 95 96 97 97 97 97 97 97 97 97 97 97 96 94 94 94 94 92 90 89 89 88 89
62 66 67 66 62 59 68 79 82 94 97 97 97 97 97 97 88 83 81 77 79 78 74 76 81 85 86 87 89 94 95 93 94 95 96 96 96 95 95 92 88 86 85 83 81 79 77 76 77 77 76 76 76 76
78 76 76 73 64 69 81 86 87 90 94 92 93 96 95 95 90 86 84 83 78 79 83 86 89 90 88 87 88 88 90 90 88 86 86 83 82 78 77 77 77 77 78 78 77 77 76 75 76 74 72 68 62 55
83 81 76 73 77 82 88 86 84 85 88 85 77 73 75 77 77 78 77 70 65 70 73 73 74 74 70 67 69 71 73 75 76 75 75 75 76 77 78 79 80 79 78 75 70 64 57 49 43 36 31 30 28 27
82 79 77 77 77 71 69 66 59 58 53 52 54 51 57 61 59 59 58 50 56 65 71 72 71 68 66 67 67 68 69 69 70 70 72 71 69 64 59 53 46 41 37 33 30 28 27 27 26 25 24 25 25 25
72 68 66 57 50 47 49 47 42 45 44 42 39 41 42 40 39 38 46 51 54 55 57 59 60 61 61 61 60 58 55 51 48 45 43 41 40 37 33 30 28 26 25 25 24 24 24 25 25 26 28 28 27 26
57 53 44 37 36 41 35 35 34 33 32 36 38 42 43 40 35 39 48 51 53 54 54 53 51 50 49 48 47 47 45 42 40 40 38 34 31 29 25 24 24 24 26 28 27 28 27 26 26 23 23 25 24 24
38 37 31 31 28 28 33 35 34 33 38 38 40 44 41 34 40 45 46 48 50 50 50 48 47 47 47 47 46 44 44 44 41 38 38 35 31 29 27 26 26 29 33 31 28 27 24 24 23 22 22 22 24 26
33 33 31 31 31 31 32 33 32 34 34 37 40 40 37 37 42 47 47 47 49 49 51 51 51 52 51 50 49 46 42 40 36 34 36 35 33 33 32 32 30 27 24 22 22 20 20 21 24 25 25 26 27 27
38 37 33 31 30 28 30 29 29 32 37 40 42 43 38 41 44 44 46 48 48 49 51 53 52 50 49 46 46 45 43 42 40 35 29 28 29 29 28 25 21 19 19 20 21 22 24 25 26 28 28 29 30 30
37 33 33 30 28 27 30 31 33 36 37 36 32 38 39 42 41 44 45 47 47 49 50 52 52 50 46 44 45 48 46 38 28 28 30 30 30 26 21 20 20 21 22 24 25 27 27 28 29 30 30 32 33 33
33 29 23 26 25 29 33 34 35 35 34 35 34 37 39 40 42 44 46 46 46 47 48 48 46 45 44 46 44 36 25 26 28 30 35 34 31 27 22 22 23 25 26 27 28 29 30 31 32 34 35 35 36 37
33 29 26 30 32 36 35 33 31 32 32 30 31 36 39 44 46 46 45 46 46 44 42 41 42 43 42 39 31 25 26 30 31 32 31 29 26 23 24 24 25 27 27 29 30 30 32 34 34 36 37 37 38 38
30 25 27 32 37 38 35 32 30 29 29 32 33 35 40 46 46 45 45 44 43 41 41 40 40 38 34 30 30 29 29 29 27 26 24 23 23 25 25 26 27 28 28 29 30 32 33 34 35 36 37 37 38 39
26 25 30 36 41 41 39 37 35 37 38 39 41 42 44 43 43 42 42 41 40 39 38 36 36 34 31 29 26 26 26 26 26 25 24 24 25 26 26 27 28 28 28 29 31 32 34 35 36 37 37 38 39 39
32 30 33 36 41 42 42 44 44 45 46 48 50 49 46 44 41 40 39 39 38 39 38 37 35 32 27 24 25 25 25 25 25 25 25 26 27 27 28 27 26 26 29 31 32 33 34 36 38 38 37 38 39 38

GFSWCAN_prec_cthk_063.txt.gz
RH
80 81 82 80 78 89 97 97 98 97 97 95 94 96 97 97 98 98 97 97 97 94 95 93 91 86 81 84 85 78 87 84 83 82 78 75 72 66 59 55 60 68 76 73 75 72 62 48 61 75 91 82 76 71
82 86 92 94 92 90 90 92 97 97 98 98 95 95 94 92 94 98 98 97 98 99 93 91 94 91 89 88 83 83 75 72 72 74 69 69 68 71 65 66 56 61 50 61 62 50 41 46 52 63 75 86 81 78
90 93 96 91 91 90 94 92 93 90 92 93 94 96 95 93 92 91 95 96 98 96 94 93 89 92 96 92 88 85 79 74 71 65 69 69 67 60 66 64 63 56 58 62 60 42 48 49 53 58 72 71 83 79
96 96 96 89 85 80 76 78 81 83 86 86 85 88 88 93 98 97 89 83 91 88 88 78 81 86 92 95 96 91 82 76 76 72 79 79 75 69 65 62 65 56 63 52 47 60 55 51 54 55 63 63 70 80
98 93 87 78 75 85 95 98 98 97 96 94 89 85 82 82 89 94 95 91 90 87 81 66 70 83 93 93 93 93 92 87 84 84 83 78 72 77 92 90 78 80 74 71 62 64 62 59 60 60 65 47 69 71
86 73 78 83 96 93 88 91 83 79 87 98 99 96 90 89 93 99 99 96 97 90 84 79 67 74 84 90 94 92 87 84 88 91 89 85 74 92 92 81 88 89 78 76 76 78 67 64 73 73 66 50 57 76
79 78 87 93 93 86 83 83 89 89 93 98 98 99 90 88 94 88 80 69 86 94 94 97 93 85 85 91 89 79 77 84 86 90 86 81 84 89 98 94 79 75 78 78 78 76 72 80 86 77 62 58 65 67
84 87 92 93 88 90 86 89 96 97 95 98 99 94 93 93 94 88 83 80 89 98 97 99 94 96 92 90 90 85 92 93 92 86 81 85 86 93 95 92 91 88 84 87 91 93 92 89 88 81 70 66 62 63
89 95 96 94 92 84 97 90 91 95 94 92 94 92 92 92 97 93 93 94 96 94 97 98 88 92 95 97 95 97 94 95 91 92 78 82 98 97 97 96 93 91 90 93 93 94 99 96 96 92 85 76 69 67
90 93 97 95 88 85 86 89 85 90 86 82 80 87 98 99 99 98 99 96 98 99 97 92 90 89 90 90 92 97 99 96 94 92 89 90 92 91 94 95 96 98 97 97 93 92 89 91 94 94 89 82 76 68
92 90 92 95 92 94 94 93 93 92 97 97 93 91 96 99 97 98 98 98 97 94 87 88 86 89 94 96 96 91 96 96 98 98 93 83 81 88 92 92 92 91 91 96 98 98 96 96 93 90 88 86 83 80
93 93 93 91 89 88 91 92 89 88 87 94 87 96 97 92 87 87 93 91 90 88 83 88 87 89 90 91 93 94 99 97 96 91 90 85 85 88 86 87 90 93 95 95 94 96 97 97 95 92 90 85 87 88
93 94 94 92 90 88 85 84 85 87 86 83 82 82 79 77 79 83 85 82 79 77 79 86 91 89 87 89 95 98 96 98 96 92 90 87 87 85 82 80 85 92 91 92 94 96 95 93 92 91 88 90 92 89
93 90 87 88 85 86 86 86 84 83 81 81 80 81 78 80 81 84 85 87 89 88 86 86 90 89 92 96 97 98 97 91 92 91 90 86 83 82 82 80 90 92 91 93 97 96 93 91 93 94 94 94 91 91
91 88 86 85 85 84 85 85 82 78 77 80 81 90 89 87 88 88 89 92 91 92 90 86 89 94 96 97 96 95 93 95 86 87 87 89 88 90 92 93 93 92 91 92 95 96 97 97 97 97 97 95 94 96
84 84 82 81 77 78 76 73 72 70 75 78 82 86 84 82 86 87 85 88 91 92 91 92 95 96 97 97 96 97 92 94 94 93 92 95 95 97 96 97 97 95 96 97 95 91 92 94 93 93 94 94 93 95
71 70 72 74 68 68 68 69 74 82 93 96 96 95 90 83 82 84 88 92 90 89 90 89 94 97 92 96 96 96 97 97 94 98 98 96 95 97 97 97 95 96 97 96 96 96 97 97 97 97 97 97 97 96
68 71 69 68 61 62 69 75 86 95 96 97 96 94 90 83 81 85 88 90 84 80 85 92 86 89 97 96 93 94 96 95 96 97 97 97 97 96 96 95 97 97 97 97 97 97 96 96 96 95 94 91 87 83
68 67 65 70 76 74 78 88 89 94 97 97 97 91 90 85 82 83 78 79 83 83 78 79 85 89 93 94 94 94 95 96 97 97 97 97 97 97 98 98 97 97 97 96 94 92 89 86 81 76 74 71 69 67
68 67 68 75 79 80 87 91 87 91 97 94 90 89 85 83 80 80 82 83 82 87 91 94 96 93 89 86 84 83 83 84 86 90 93 94 94 91 90 87 85 84 81 79 78 77 75 70 65 58 50 41 33 29
71 67 73 80 80 81 79 77 79 83 91 94 85 87 87 85 87 87 85 84 80 81 76 71 71 70 71 71 72 73 74 75 76 76 77 78 78 77 76 75 76 75 71 63 52 42 34 29 27 24 22 22 22 23
71 74 77 77 74 71 71 69 65 65 64 64 68 69 74 71 66 63 63 58 55 59 58 60 60 60 62 62 64 64 64 64 65 66 66 66 64 59 53 47 41 35 30 27 23 21 21 23 24 24 24 24 24 23
70 66 63 57 44 44 50 48 46 47 46 44 41 44 45 43 42 41 43 47 51 54 54 53 53 54 57 57 57 57 56 55 54 52 49 46 42 38 32 29 26 24 22 23 24 25 24 25 25 26 26 25 23 22
58 52 42 32 32 42 38 37 35 35 36 39 41 45 42 37 35 39 48 51 52 53 53 54 55 55 54 52 50 49 46 44 42 40 38 35 31 28 26 25 25 25 26 27 27 27 26 25 24 23 24 24 23 24
43 40 35 36 31 29 33 35 35 33 37 38 42 44 40 35 41 46 48 50 51 52 52 52 53 51 50 50 50 50 50 49 44 39 37 34 30 28 28 28 29 30 32 32 27 25 23 24 24 23 24 25 26 27
39 37 32 32 31 30 32 32 32 34 35 39 39 37 33 35 40 44 47 49 51 52 51 51 51 52 53 51 49 47 43 40 40 38 36 34 34 34 33 33 31 27 24 22 22 22 22 24 26 26 27 27 28 28
34 37 33 32 30 27 30 30 30 31 34 37 37 35 33 39 41 44 46 49 50 51 52 52 53 52 51 50 48 42 40 40 37 31 28 29 30 29 28 25 22 20 20 19 20 23 24 26 27 27 28 29 30 32
36 33 32 29 27 27 30 30 32 34 35 34 33 37 38 40 41 44 47 49 50 51 51 52 51 47 43 42 42 44 40 31 23 24 27 29 30 26 23 21 21 21 22 24 26 26 27 27 28 31 33 33 33 35
33 27 22 26 25 28 32 33 35 36 35 32 32 37 40 41 43 45 48 49 50 50 50 49 47 44 42 42 40 34 22 22 29 31 34 33 29 25 22 22 22 24 26 27 28 28 29 30 31 32 34 35 36 37
27 24 24 31 33 34 34 34 34 34 32 30 32 38 41 43 46 48 49 48 47 46 44 43 42 41 38 36 27 23 25 26 26 28 28 28 26 22 23 24 26 27 27 28 28 29 30 32 32 33 34 36 37 38
25 26 31 34 35 36 34 32 31 30 29 32 34 35 38 44 47 49 48 47 45 43 42 41 40 37 35 31 29 27 27 27 26 25 24 24 23 24 25 26 27 27 28 27 28 29 31 32 33 34 35 37 38 39
31 32 33 37 40 38 36 35 34 35 37 38 39 38 40 43 45 45 45 45 43 41 39 38 36 33 30 28 25 24 25 25 25 25 24 24 25 26 27 27 27 27 26 26 28 30 31 33 35 36 37 38 38 38
40 34 33 35 38 39 38 38 38 41 42 43 44 44 46 44 44 43 42 42 40 40 39 38 35 33 28 24 24 25 25 25 25 25 25 25 27 27 28 28 27 25 26 28 30 31 33 35 37 37 37 37 36 33

GFSWCAN_prec_cthk_069.txt.gz
RH
96 93 87 81 80 81 81 79 77 74 77 87 97 97 98 98 98 88 76 72 72 74 68 77 88 93 98 96 96 95 98 98 97 92 89 86 81 75 68 70 78 68 77 76 74 73 61 46 52 52 40 34 37 37
95 96 94 88 87 86 88 86 85 82 78 76 94 97 98 98 98 98 94 85 82 81 76 77 87 96 89 88 94 95 89 91 89 88 84 79 79 77 70 70 65 67 63 64 63 54 48 50 57 47 37 37 40 42
98 95 94 94 92 92 91 91 91 88 85 82 90 97 98 98 98 98 96 94 87 83 78 84 86 89 93 95 96 96 94 92 89 85 85 81 74 68 73 68 62 60 56 57 53 47 43 39 47 51 50 46 44 44
98 98 96 89 76 74 76 81 85 87 89 88 95 98 98 98 98 97 98 97 98 97 95 86 85 96 97 98 98 95 93 91 92 90 90 82 77 69 69 62 60 56 56 54 49 46 46 45 56 54 49 46 48 50
99 95 87 81 82 86 88 88 88 80 84 95 98 98 98 98 98 98 99 99 98 96 96 95 91 90 94 93 93 96 95 96 95 96 94 91 83 80 78 76 72 62 57 56 51 59 62 59 58 58 62 59 53 55
94 96 98 95 92 87 82 83 93 97 88 87 98 98 98 98 99 99 98 99 98 98 97 97 88 86 89 91 93 95 98 99 99 98 97 95 92 87 84 76 69 67 64 63 62 62 65 66 71 72 71 67 65 61
97 90 90 91 95 87 82 82 88 93 97 96 90 94 99 98 98 98 94 88 96 98 96 92 91 88 80 91 92 94 97 98 98 98 98 97 94 93 91 78 71 70 68 65 64 64 66 72 72 78 77 76 74 73
91 90 93 93 91 85 92 97 90 93 99 98 98 94 98 99 99 99 97 93 98 98 94 95 91 88 80 84 94 91 96 99 98 98 98 97 98 98 97 82 78 75 70 66 66 68 75 76 78 82 81 80 80 77
88 89 95 95 87 93 97 98 95 93 99 98 99 99 99 99 99 98 97 98 98 97 93 94 89 93 82 79 81 91 93 92 92 89 94 96 95 96 83 81 74 70 67 71 76 79 83 84 85 86 88 90 90 87
90 92 95 96 94 90 99 89 92 98 98 98 99 98 99 99 98 98 99 95 94 94 91 93 86 96 86 79 82 92 89 94 96 94 95 97 92 86 86 80 73 73 73 79 81 83 85 88 91 93 94 95 97 97
95 94 93 96 98 91 91 99 98 99 97 95 95 93 98 98 97 95 86 85 85 87 89 93 86 92 87 86 87 88 95 96 93 90 93 86 80 78 80 79 80 78 77 78 89 87 87 96 95 96 97 97 97 98
94 91 91 92 90 93 88 89 91 86 86 83 81 88 88 92 90 94 92 91 88 95 93 88 92 93 94 98 93 93 97 95 92 86 92 84 84 87 88 87 85 82 80 79 80 83 86 93 94 93 95 97 98 97
92 89 92 91 93 93 92 92 97 89 86 91 91 84 86 94 94 86 87 89 92 94 94 93 94 95 95 95 91 96 91 93 93 94 89 89 91 91 94 91 89 89 86 84 81 83 87 93 94 96 97 97 97 96
91 90 92 95 95 92 86 85 89 90 86 82 81 83 83 82 80 80 81 86 86 87 88 90 91 93 93 92 96 94 95 94 94 96 95 96 97 96 96 94 94 92 90 88 88 87 89 93 94 95 97 97 95 92
90 89 90 93 89 86 80 78 79 80 78 80 75 83 82 82 82 81 82 83 82 82 85 89 89 88 91 90 93 94 95 95 93 94 96 97 97 97 97 97 98 97 93 91 91 94 96 96 96 97 97 96 96 96
90 86 87 86 91 90 86 81 76 77 77 78 80 83 84 85 85 84 83 82 80 82 84 86 91 92 96 95 93 96 95 94 95 97 97 97 98 98 98 97 98 97 96 96 97 97 96 97 97 97 97 97 97 97
90 92 87 83 84 93 87 80 77 80 84 85 89 89 89 91 91 91 92 91 92 92 93 92 94 96 96 95 96 96 96 97 97 98 97 97 97 97 98 98 98 98 97 97 97 97 97 97 97 98 97 97 98 98
87 91 92 86 86 86 87 83 82 85 92 93 93 92 91 93 94 94 93 92 91 93 94 96 96 96 96 96 96 96 97 97 97 97 98 98 98 98 98 98 97 97 97 97 97 97 98 98 97 97 97 97 95 90
91 93 92 82 83 86 89 90 87 89 93 94 92 86 84 88 88 85 86 88 87 86 87 92 96 96 96 96 96 95 94 96 97 97 97 97 98 98 97 97 98 98 97 97 98 98 98 98 96 92 83 73 60 50
86 90 94 97 92 92 89 84 79 82 89 89 84 80 79 83 85 88 88 87 88 89 92 94 96 96 92 88 81 71 70 73 77 81 87 91 94 95 96 97 97 97 96 97 96 94 85 73 61 50 39 30 25 24
92 90 89 91 88 84 82 78 77 78 80 78 79 79 83 84 85 87 90 91 92 95 93 85 77 67 62 62 63 64 65 66 66 67 68 70 73 75 77 77 77 77 72 64 55 47 38 29 26 24 23 21 21 21
71 65 73 71 68 66 68 73 72 77 78 82 86 82 87 90 91 84 71 64 60 56 54 55 57 57 58 59 61 64 65 66 67 67 67 69 71 71 67 61 53 45 37 31 27 25 25 26 26 25 23 21 20 19
51 51 62 69 67 72 81 82 79 80 80 84 82 78 71 64 57 52 50 49 52 54 56 56 57 58 58 58 59 59 58 57 55 51 48 44 40 36 33 30 28 26 25 25 26 26 26 26 26 25 23 22 22 21
44 36 37 44 50 61 57 56 53 53 54 54 52 50 43 40 36 40 48 52 53 54 56 56 56 56 55 53 49 46 44 43 40 40 38 33 29 27 27 27 28 28 28 28 28 27 26 26 26 25 25 26 26 25
34 32 28 30 29 32 38 40 39 37 40 39 39 39 38 35 40 47 50 51 52 53 53 53 51 50 48 49 49 48 48 46 42 36 33 32 29 28 29 29 30 32 31 31 29 28 27 26 26 26 26 25 26 27
34 34 31 31 30 29 32 34 33 34 34 36 36 35 32 35 41 48 49 51 53 53 52 52 51 52 52 51 50 49 45 41 38 35 32 29 27 27 27 28 27 26 25 25 25 25 25 25 25 25 26 28 30 31
34 35 31 30 29 27 29 30 30 30 34 36 34 32 32 41 46 49 51 53 53 52 52 53 53 52 50 47 44 41 39 35 30 24 22 23 24 25 25 24 23 22 23 23 23 24 25 26 27 28 30 32 32 33
33 30 29 27 25 25 28 30 33 37 38 37 33 37 39 42 46 50 52 52 53 53 53 51 48 46 44 41 40 39 33 24 21 23 27 29 29 26 23 21 21 22 23 24 26 28 29 29 29 30 31 31 32 33
30 26 22 26 26 28 32 35 37 38 39 35 35 40 41 43 46 50 52 54 54 53 51 49 45 42 41 41 37 30 21 25 29 29 29 29 29 28 23 22 23 25 27 28 29 29 29 29 30 31 31 31 31 32
27 24 24 28 32 36 37 37 36 35 35 35 37 41 43 45 48 51 53 53 53 52 49 46 43 41 39 34 26 24 26 27 28 28 27 27 26 25 24 24 25 27 28 29 29 28 27 28 29 30 30 31 32 32
26 25 26 31 34 37 38 38 35 34 35 38 38 38 42 47 51 52 52 49 48 45 44 42 41 39 36 29 28 28 29 29 28 27 27 26 26 25 25 25 27 28 29 29 28 27 28 29 29 31 32 32 32 31
27 26 26 33 36 36 36 36 36 39 40 40 40 41 45 48 51 51 49 47 45 43 42 41 39 36 30 28 29 30 31 31 30 29 28 27 27 27 27 27 28 29 30 29 29 30 30 30 32 32 32 31 30 31
30 28 28 30 33 33 35 37 39 41 39 41 44 46 49 49 50 48 47 45 44 42 41 39 37 34 30 32 32 33 34 35 35 35 35 34 32 31 30 30 30 30 29 31 31 32 32 32 32 31 31 31 33 35

GFSWCAN_prec_cthk_072.txt.gz
RH
94 97 97 95 94 91 88 86 85 83 79 79 88 95 98 98 99 99 95 86 78 66 46 67 74 59 71 82 90 95 98 97 98 96 88 80 79 74 73 75 83 83 74 73 68 63 69 49 50 53 62 48 39 36
96 97 96 95 95 90 89 91 86 83 84 83 77 84 97 98 98 99 98 91 86 78 58 57 64 74 86 83 88 98 92 93 93 91 81 82 80 79 75 75 73 83 65 67 58 61 60 62 60 58 55 47 43 40
95 95 96 94 93 91 86 87 89 86 88 87 84 77 90 98 98 97 97 98 91 84 68 60 63 71 83 93 96 98 97 97 96 89 93 87 88 76 81 71 69 63 62 62 59 54 55 53 51 51 47 46 44 44
97 95 93 89 86 85 83 72 72 74 83 90 87 82 82 98 98 98 94 96 96 90 79 72 74 79 84 85 88 91 96 97 97 97 95 91 86 78 77 73 67 65 61 56 53 53 54 48 50 50 46 48 46 48
95 91 92 93 90 87 83 80 79 79 79 86 90 87 88 98 98 99 97 95 93 91 86 79 82 79 81 77 94 98 98 98 98 98 96 93 85 86 80 78 68 66 62 62 58 60 58 51 51 54 55 56 52 53
92 87 83 82 82 79 78 79 87 89 85 80 90 93 98 98 98 98 98 98 97 97 97 92 86 80 86 88 98 98 97 98 98 98 96 96 89 90 88 77 73 76 70 68 64 62 61 62 61 60 65 65 63 61
88 85 88 90 88 84 81 84 82 88 96 86 94 99 99 97 97 98 94 84 94 98 98 94 91 89 90 94 98 99 98 96 96 97 96 93 90 91 89 80 80 75 72 70 66 64 62 65 63 61 63 65 64 62
88 93 93 88 92 87 94 88 87 86 98 94 98 99 98 98 99 99 93 90 96 99 98 96 93 89 86 89 95 95 97 97 95 97 94 93 95 96 91 83 79 78 78 76 73 71 68 67 68 69 69 71 72 72
94 97 90 96 94 97 97 94 91 99 98 99 97 99 99 98 99 98 96 98 98 97 95 93 89 89 84 84 90 95 95 97 95 94 93 96 95 90 81 80 81 80 80 79 75 70 76 76 74 73 78 79 79 81
96 92 92 94 92 92 94 96 98 98 96 95 98 98 99 99 98 97 99 99 98 97 95 90 87 93 85 85 85 90 94 96 96 97 97 97 89 88 88 85 85 86 88 87 82 76 75 80 80 80 83 85 87 88
94 91 90 91 98 98 97 98 94 92 94 98 98 95 98 99 98 98 97 95 96 98 94 93 87 92 89 81 78 82 91 86 88 88 92 84 76 75 77 79 83 85 87 89 87 80 78 77 83 87 88 94 95 95
94 95 91 86 91 97 98 98 91 88 84 85 91 96 97 98 97 94 95 92 90 90 88 88 82 92 87 87 84 86 95 96 96 93 92 84 76 80 80 79 80 85 85 82 83 81 80 81 87 89 90 92 94 94
96 96 95 84 91 92 92 96 93 89 88 90 90 87 84 82 82 79 81 80 80 82 87 86 89 92 98 99 97 96 88 97 95 91 86 81 84 86 88 90 93 94 94 91 87 85 86 81 81 87 89 93 95 97
97 99 97 94 86 93 91 87 84 83 80 76 74 82 93 90 82 72 72 79 87 86 93 94 93 95 94 96 96 87 89 87 87 83 80 82 87 94 95 97 97 97 97 97 96 91 88 88 88 89 89 94 96 96
91 97 98 88 83 79 82 86 81 81 75 76 80 87 82 81 83 86 89 90 90 93 94 92 92 92 92 88 84 85 87 85 81 81 86 92 96 97 98 98 96 97 97 97 97 97 95 95 95 97 97 97 97 97
89 88 93 98 93 86 78 76 78 78 80 80 84 84 84 84 84 85 85 87 87 87 88 85 87 82 82 80 81 86 85 88 91 95 97 97 97 97 98 98 98 98 97 97 97 97 98 98 97 97 97 97 97 97
95 93 86 85 91 91 86 80 78 80 81 83 87 89 89 87 85 84 81 79 78 81 84 83 84 88 88 90 91 93 95 96 97 97 97 97 97 97 97 98 97 98 98 98 98 98 98 98 98 98 98 98 98 98
94 95 90 86 87 89 86 81 81 83 85 85 84 85 87 90 89 88 88 89 89 88 90 92 92 93 94 93 95 96 96 96 97 97 98 98 97 97 97 97 98 98 98 98 98 98 98 98 98 98 98 97 92 82
94 97 95 88 86 87 88 84 80 84 88 88 87 86 88 91 92 93 91 89 90 91 91 94 93 95 96 95 90 83 78 76 78 84 90 93 95 96 97 97 98 98 98 98 98 98 98 98 98 92 83 75 67 61
94 94 95 88 85 83 80 80 79 82 86 88 84 84 88 90 89 91 91 89 90 94 95 95 95 88 77 70 68 65 64 65 67 69 72 74 76 78 78 80 82 84 87 90 90 90 85 75 67 59 55 52 46 40
95 92 91 90 84 79 77 77 80 80 82 80 79 81 84 89 92 92 93 96 93 92 82 71 62 59 59 61 63 65 66 67 68 68 70 73 76 78 78 78 80 83 86 83 75 64 54 50 43 36 30 25 26 27
81 80 77 77 78 76 75 73 71 73 74 79 83 85 88 90 89 81 73 67 62 57 54 55 56 58 59 60 62 64 65 65 66 67 67 68 68 68 67 63 56 47 41 39 35 34 32 30 28 27 26 25 25 26
67 65 65 65 66 70 76 76 75 77 79 83 83 81 75 68 63 58 57 50 52 55 57 58 59 59 59 58 58 58 58 57 56 53 50 46 42 38 35 32 31 31 32 30 31 33 31 29 29 28 27 30 29 27
50 56 58 59 62 70 71 71 72 74 76 75 68 60 52 46 41 45 50 53 56 57 58 58 57 57 56 56 54 50 46 44 41 40 39 38 36 32 31 30 30 30 31 31 32 31 30 29 29 28 27 27 27 27
36 45 53 55 57 60 60 58 55 48 47 44 42 42 40 40 45 49 51 53 55 54 54 54 53 51 50 50 50 46 46 47 45 39 35 33 30 29 29 27 27 28 28 30 27 27 27 28 27 27 27 27 25 26
32 35 32 34 35 33 35 36 36 36 34 35 37 36 36 38 43 49 50 53 54 54 52 53 53 53 53 52 52 50 45 42 40 38 31 28 26 29 31 31 31 26 24 23 24 25 25 26 27 27 26 26 29 31
31 32 30 29 29 27 29 30 29 30 36 37 35 33 33 38 45 48 52 53 54 53 53 53 53 53 50 46 44 41 39 35 29 23 22 23 26 26 27 28 27 23 23 23 23 24 28 27 28 28 29 31 33 33
30 28 26 26 26 25 27 28 33 37 39 37 32 38 38 41 46 50 52 53 54 54 54 51 49 48 45 40 39 35 30 23 22 26 28 30 29 28 25 23 22 22 24 25 27 29 30 30 30 30 31 33 33 33
28 26 22 25 24 26 31 34 37 38 38 34 36 41 43 45 48 51 54 56 56 54 52 50 47 43 41 40 34 27 23 27 31 31 30 33 31 30 26 24 24 24 26 29 30 30 31 30 30 31 32 32 32 33
27 25 24 26 29 33 35 37 37 35 35 35 38 42 46 48 50 53 56 56 55 53 50 47 44 42 38 31 24 24 26 28 30 30 29 30 28 26 26 26 26 26 27 29 31 31 30 29 31 31 31 32 33 33
26 26 26 31 33 35 35 34 35 35 35 38 41 43 46 49 51 54 55 53 51 49 47 45 42 40 32 26 26 28 29 31 32 33 32 30 28 27 27 28 28 28 29 30 31 31 31 32 32 32 33 33 33 32
28 26 26 32 35 35 33 32 32 35 38 40 43 43 46 49 52 53 52 50 48 46 45 43 41 34 28 26 27 29 30 32 34 35 36 36 36 35 34 32 31 31 31 31 31 33 33 34 34 34 33 32 32 32
30 28 29 30 32 31 30 31 30 34 38 42 45 45 47 50 53 52 50 49 47 46 44 42 37 32 28 30 31 32 34 36 38 39 40 41 42 41 40 38 37 36 35 35 36 36 36 35 34 34 34 34 34 35

GFSWCAN_prec_cthk_075.txt.gz
RH
81 86 89 94 97 97 95 92 94 95 95 95 92 93 96 97 95 94 88 95 96 87 78 57 74 77 69 70 88 92 93 96 98 98 91 82 76 76 65 69 79 79 80 73 68 77 62 48 54 56 68 67 67 62
83 85 91 94 96 96 95 91 89 91 91 89 86 85 90 98 98 99 97 95 97 91 80 63 58 72 85 95 96 95 91 96 92 93 80 81 80 75 71 70 74 82 68 68 59 57 61 62 70 71 63 64 64 55
83 87 90 93 93 92 91 88 86 86 91 89 85 88 83 87 98 99 97 99 99 92 85 72 52 57 64 80 86 92 94 93 96 91 95 96 92 80 80 71 72 72 82 85 89 67 75 74 62 64 64 62 59 54
87 90 91 91 88 86 85 83 82 84 83 90 87 90 87 82 94 98 97 95 99 98 89 58 51 49 59 62 74 87 90 95 97 97 96 94 90 78 77 76 75 71 74 70 65 68 66 68 63 59 56 51 52 48
94 94 92 85 80 74 75 80 83 82 74 76 82 88 88 84 87 99 99 98 98 90 87 62 59 49 54 67 86 93 94 96 98 98 97 91 82 86 81 79 79 72 72 73 73 79 74 80 70 59 52 52 53 51
94 90 84 81 78 77 78 78 73 81 82 76 81 88 95 87 87 99 98 98 97 92 96 89 74 61 68 78 83 86 96 98 98 99 96 89 87 91 92 81 76 80 79 78 80 85 80 66 59 58 58 57 57 60
89 88 87 85 86 80 74 72 78 77 87 84 85 90 95 90 91 97 91 84 90 97 98 93 94 89 85 83 85 97 98 98 97 97 95 93 92 90 93 89 97 92 87 81 74 70 71 70 66 63 62 59 59 60
94 92 90 90 84 84 80 79 80 81 93 94 90 96 97 97 99 99 92 86 90 98 98 97 94 90 87 93 97 96 97 95 95 93 91 90 86 96 95 87 83 83 84 83 82 81 78 75 70 66 67 68 68 67
89 86 93 99 94 96 98 94 91 93 98 97 99 99 99 98 98 98 95 95 97 98 94 91 90 93 89 94 92 96 95 95 90 91 88 89 92 95 89 87 85 85 87 86 84 83 81 78 74 73 74 73 69 70
90 85 95 97 90 96 95 94 95 99 98 99 99 98 98 98 99 96 99 98 99 98 96 88 94 95 87 87 87 96 92 96 93 90 95 96 90 88 89 88 86 87 86 85 84 82 82 81 81 78 72 73 72 76
93 85 98 92 89 96 98 99 98 98 99 98 98 97 97 99 98 98 98 98 97 97 89 91 93 90 91 91 92 87 96 93 95 94 94 92 84 87 86 87 85 80 82 82 83 83 84 84 84 85 82 76 77 83
94 87 93 97 96 97 95 97 99 99 96 93 90 95 98 98 98 96 97 93 88 91 86 91 89 90 94 94 89 90 93 92 92 90 92 87 80 83 78 74 76 78 79 79 78 81 85 84 81 86 81 79 81 88
97 90 90 94 96 92 93 95 97 98 96 94 94 95 91 87 92 92 88 84 85 84 85 89 88 92 93 89 84 87 83 87 85 90 86 78 76 76 75 76 79 81 82 82 85 85 86 88 88 87 84 85 90 88
99 97 97 92 93 97 95 88 88 89 84 79 78 81 82 80 75 76 79 80 82 85 87 88 91 93 95 97 96 92 86 81 85 82 78 78 80 80 81 83 88 92 91 91 92 90 91 93 91 90 89 92 90 87
98 93 86 88 88 85 86 83 81 77 75 75 85 89 78 74 70 68 74 78 83 88 89 89 87 89 94 95 92 91 89 84 79 78 81 85 88 88 90 95 96 97 97 97 95 94 95 96 96 97 95 94 93 94
92 95 93 82 77 78 82 81 83 80 80 89 87 87 86 83 78 78 80 85 85 90 94 93 90 90 90 86 85 84 80 81 85 90 95 96 97 97 97 97 97 97 97 97 98 98 98 98 98 98 98 97 98 98
97 92 91 97 93 87 81 81 82 85 88 88 90 90 88 87 88 89 89 90 91 91 88 85 85 85 79 81 85 87 89 92 95 96 97 97 98 98 98 98 98 97 97 97 98 98 98 98 98 98 98 98 98 98
97 95 88 89 93 88 82 80 80 84 87 88 89 91 90 88 85 84 83 82 83 81 82 85 81 86 90 90 91 93 95 94 88 84 88 92 96 98 98 98 98 98 98 98 98 98 98 98 98 98 98 98 94 85
96 96 91 89 90 89 86 86 85 85 86 88 89 91 94 93 90 89 87 85 86 88 90 90 92 91 93 95 93 82 65 60 61 65 67 71 74 77 79 82 85 89 92 95 95 95 96 97 98 97 91 85 79 72
94 96 92 86 89 88 84 86 84 85 87 87 87 87 90 93 94 94 93 94 93 93 93 94 96 96 82 63 56 56 58 60 61 64 68 71 74 76 78 79 79 80 83 87 89 89 89 86 80 73 69 68 67 62
95 94 91 87 85 84 81 82 84 86 87 85 84 87 92 91 92 93 94 93 93 93 86 76 64 55 55 56 56 58 61 62 64 66 66 68 69 70 71 72 73 75 78 79 77 71 65 58 54 50 44 39 35 32
90 89 90 84 82 81 81 80 82 81 80 80 84 85 89 91 91 89 83 75 65 60 56 54 54 55 56 56 57 56 58 60 61 62 64 64 64 65 66 67 67 60 51 46 45 42 38 35 33 32 31 30 30 30
79 77 78 79 78 77 81 79 77 76 77 80 81 83 84 81 71 64 57 54 54 56 55 55 56 56 55 55 56 56 55 55 55 55 55 53 51 49 46 43 40 38 36 34 34 37 34 32 32 33 33 34 34 33
62 62 67 69 69 73 71 72 72 75 80 82 77 69 60 52 47 48 51 53 54 54 55 55 54 54 53 53 52 50 48 46 46 47 45 42 40 37 35 35 35 35 34 35 35 35 34 34 33 35 35 36 36 37
56 60 62 61 62 65 69 72 73 75 68 60 50 45 42 44 50 50 52 53 53 53 53 53 52 52 51 51 49 48 47 47 47 41 38 36 34 34 33 32 32 32 32 33 31 30 30 30 32 34 35 37 36 34
56 58 62 65 64 64 62 57 50 44 39 38 39 40 43 40 44 50 51 52 53 54 54 54 54 54 54 53 52 51 47 45 40 37 34 30 29 32 39 40 42 38 32 31 31 31 30 31 32 32 35 31 28 32
44 51 49 43 41 38 38 38 33 32 34 36 37 37 35 40 48 50 52 54 54 55 56 55 55 54 52 49 47 43 38 31 29 24 22 24 27 28 34 35 34 31 27 26 30 31 32 33 35 36 36 36 37 39
31 32 30 32 29 28 30 31 34 36 37 36 33 37 38 42 49 52 53 55 55 55 54 53 52 49 47 43 39 35 28 22 22 25 27 30 29 29 27 26 25 24 25 25 28 28 35 37 37 37 36 37 38 39
32 26 23 26 26 29 33 36 37 39 39 38 37 39 43 46 49 51 53 55 56 55 54 51 46 42 40 39 34 30 28 31 34 34 35 39 40 35 28 28 30 28 30 33 29 30 33 32 34 35 36 37 37 35
26 26 23 27 29 32 36 37 39 37 37 37 37 41 45 48 50 52 55 56 56 54 52 50 47 45 43 38 26 24 24 26 28 34 39 42 40 36 32 31 31 28 28 32 34 36 34 33 34 35 36 38 39 39
28 29 28 29 32 34 35 35 35 36 37 38 39 40 43 47 50 53 55 55 54 52 50 47 44 42 37 30 31 32 34 29 30 32 34 36 38 39 37 36 34 32 31 31 31 31 31 33 39 40 39 39 36 33
30 29 28 31 34 35 35 36 35 36 37 37 39 40 45 49 53 54 54 55 53 51 48 46 44 39 26 23 24 27 30 32 34 36 38 39 41 41 41 41 41 39 38 36 35 35 35 36 36 36 35 34 34 34
33 32 30 32 34 34 33 34 31 33 35 37 39 43 46 51 56 55 54 52 50 48 46 43 38 30 26 27 30 32 33 35 37 36 34 35 36 37 38 39 39 39 39 39 39 38 38 37 36 36 36 37 39 42

GFSWCAN_prec_cthk_078.txt.gz
RH
26 25 38 75 80 87 93 96 94 95 97 99 97 96 97 96 98 99 88 88 89 93 86 70 72 78 76 76 85 91 85 98 87 90 82 74 77 75 79 76 85 77 83 78 72 71 64 58 58 80 77 74 76 76
24 40 65 79 83 88 90 95 95 89 91 93 97 96 93 93 95 99 98 93 93 97 82 73 65 66 73 80 87 98 92 92 79 75 77 81 84 84 71 74 80 93 75 76 67 58 61 61 67 85 75 86 84 73
42 61 78 80 85 90 93 96 95 93 88 89 91 92 87 87 96 96 93 92 91 97 86 75 54 57 62 63 76 85 88 90 84 88 94 96 91 84 82 71 74 84 84 77 76 66 69 85 83 72 82 78 72 67
60 79 88 90 91 93 90 88 87 86 85 84 86 91 86 85 86 97 95 95 96 95 87 65 63 51 57 70 75 86 95 90 87 93 98 96 88 93 90 81 77 80 83 86 93 89 91 88 92 89 73 65 64 59
89 96 96 93 91 88 81 77 75 80 83 82 84 91 89 92 89 89 99 96 97 95 92 82 70 62 56 54 64 75 75 78 91 98 95 92 84 87 82 80 76 80 91 95 95 93 95 94 95 88 80 68 56 51
99 97 92 87 83 80 76 75 73 70 72 81 80 85 87 91 93 89 97 98 98 97 96 95 74 51 56 57 52 65 81 92 98 97 94 90 88 87 88 86 94 91 83 84 87 89 89 87 82 79 75 61 53 51
96 90 85 82 82 82 80 77 77 76 73 80 83 81 88 91 91 84 90 87 88 99 98 92 86 66 54 61 61 69 82 98 98 97 97 94 91 93 88 87 95 98 93 89 88 84 84 81 77 71 66 62 58 58
92 87 83 84 94 98 90 73 72 76 81 85 90 88 94 97 98 90 94 90 92 98 97 91 94 84 64 64 79 89 95 97 97 96 95 93 88 88 95 89 88 90 88 86 89 86 81 79 74 71 70 67 65 66
89 84 86 94 88 91 90 93 88 83 84 95 98 96 96 99 96 92 97 95 97 98 90 90 97 96 77 87 88 92 90 98 95 96 92 90 85 97 96 94 90 88 89 88 87 85 84 83 80 81 78 76 73 70
89 79 87 80 83 91 98 99 92 91 93 98 99 98 99 99 99 98 99 99 98 98 93 93 88 97 89 91 96 96 97 96 95 89 91 91 89 90 91 89 87 89 89 87 84 82 83 81 82 83 80 78 76 75
85 91 86 82 84 87 97 96 98 99 99 99 96 98 96 98 98 99 98 98 98 96 89 90 92 94 89 88 90 92 96 93 91 92 94 96 90 92 92 93 90 89 87 85 82 79 79 78 76 76 77 75 74 74
86 94 88 93 91 97 99 98 99 98 98 96 91 93 95 98 97 98 98 97 94 89 89 92 97 97 95 95 97 90 90 94 95 96 97 92 92 90 89 87 85 83 82 79 76 73 73 74 75 75 76 76 78 78
93 87 87 84 89 96 99 99 99 99 97 94 95 98 98 97 98 98 94 93 91 89 87 86 93 94 91 93 94 94 92 94 90 92 89 84 84 81 79 78 77 77 78 78 80 83 84 83 83 86 86 87 88 88
95 92 91 87 90 96 98 98 98 97 94 91 89 91 93 89 87 91 87 86 83 84 85 85 87 87 89 90 91 91 87 83 82 78 73 74 79 79 80 80 79 78 80 83 84 86 88 89 91 91 90 90 91 92
97 93 88 90 92 92 96 95 91 85 85 82 82 86 85 86 86 89 90 87 88 88 90 90 90 91 94 95 93 89 88 85 78 78 79 81 81 82 84 86 87 88 89 92 95 97 96 95 97 97 97 96 96 96
95 88 88 87 82 83 85 84 81 74 83 83 84 78 77 76 72 73 76 81 87 89 90 89 91 92 93 88 86 89 85 82 83 86 91 92 95 95 96 96 97 97 97 97 97 98 98 97 98 97 97 97 97 98
92 92 90 85 80 74 76 82 82 92 93 89 86 79 78 69 72 77 81 84 85 87 85 83 82 83 81 84 82 81 85 93 95 97 97 95 93 95 96 97 97 97 97 97 98 98 98 98 98 98 98 98 98 98
98 89 93 90 82 76 78 81 84 88 92 95 93 90 89 84 81 82 83 82 87 88 86 87 82 80 82 81 87 95 97 97 91 75 64 65 69 73 78 82 84 87 92 95 97 97 97 97 97 97 97 97 97 93
97 94 91 94 91 84 84 86 84 85 91 93 94 92 91 90 88 87 86 85 82 80 80 79 82 86 92 96 96 94 81 62 57 60 61 61 63 66 69 72 75 77 78 79 80 81 81 85 89 89 89 87 85 81
96 97 88 91 93 87 89 91 88 86 88 90 92 92 89 87 85 83 80 79 82 84 89 93 96 97 97 88 70 57 55 56 57 58 61 64 66 68 69 70 71 72 74 75 77 79 80 79 78 72 70 69 70 65
94 92 88 91 90 89 87 85 84 85 85 85 87 88 94 93 95 94 94 94 92 94 96 93 88 77 57 54 54 55 56 57 58 61 62 63 65 67 69 69 70 71 71 71 71 73 71 64 56 52 45 39 35 32
95 92 90 85 86 87 88 86 86 86 85 83 88 91 94 94 93 94 93 86 82 75 67 60 56 55 55 55 54 54 56 56 57 58 59 59 61 62 63 63 63 62 59 55 51 49 47 41 38 37 35 34 35 33
90 90 87 85 84 82 87 86 83 84 83 86 87 89 92 92 85 74 66 60 57 57 55 54 54 54 54 53 53 54 53 53 54 55 55 54 52 50 47 44 45 45 44 42 42 44 39 34 34 36 36 40 38 34
74 74 80 79 77 80 79 78 77 79 82 83 84 86 77 65 57 53 53 54 54 54 54 54 52 52 51 51 51 50 49 49 50 50 49 46 43 38 37 37 36 35 36 36 39 39 37 34 31 38 34 38 40 44
68 69 73 72 71 72 72 75 77 78 82 83 69 55 48 51 52 50 52 54 55 54 54 53 53 54 52 52 51 48 48 51 49 43 36 36 37 37 35 33 33 33 33 42 43 41 36 33 33 36 35 39 40 39
62 63 68 66 67 68 70 73 76 78 64 49 42 43 48 48 47 51 54 56 55 55 55 55 54 53 54 53 51 51 47 43 39 38 32 27 28 32 41 42 43 44 37 31 32 40 37 32 33 32 34 36 35 31
54 59 62 65 65 67 69 61 50 42 37 39 41 40 41 46 50 53 56 56 56 55 55 56 55 55 53 51 48 43 37 29 27 24 22 23 25 27 31 35 37 36 32 28 31 32 35 37 36 37 38 39 39 38
61 65 65 61 53 47 44 41 39 38 37 37 37 39 43 48 52 52 52 53 54 56 55 54 53 51 49 46 42 35 26 20 21 25 29 32 34 31 29 27 25 26 27 28 28 30 33 36 38 39 39 38 38 39
47 42 38 40 36 38 38 38 37 38 39 38 37 38 41 44 45 48 50 53 55 55 54 52 50 45 43 41 38 32 28 28 30 31 34 42 46 41 39 35 37 32 34 35 34 33 31 32 36 37 37 37 39 38
33 32 28 31 32 35 38 38 39 38 37 35 35 38 40 42 45 48 51 54 57 56 53 50 47 45 42 38 30 26 22 22 25 30 38 43 42 40 40 43 44 43 39 41 39 38 38 37 38 38 40 40 41 41
31 30 29 30 32 34 36 35 35 35 36 36 37 35 38 40 43 46 50 55 58 56 52 48 45 42 38 32 29 29 31 29 28 30 32 34 35 39 36 34 35 38 41 41 40 40 39 37 42 42 43 43 41 38
30 29 28 31 34 36 38 40 38 38 37 37 37 39 40 41 43 45 52 60 58 55 50 47 43 39 27 20 21 23 25 28 30 32 32 33 35 34 35 35 36 36 37 36 38 38 40 39 39 38 38 40 39 40
31 31 29 32 35 37 38 38 36 40 37 36 37 39 40 41 43 50 60 60 57 52 47 44 39 32 23 23 25 27 28 30 32 32 33 35 37 39 39 39 38 37 38 40 40 41 41 40 40 41 43 45 48 50

GFSWCAN_prec_cthk_081.txt.gz
RH
39 38 33 30 28 44 65 79 86 95 95 96 96 96 96 93 89 88 82 86 84 88 85 81 74 78 83 81 88 89 89 80 89 84 84 77 66 60 68 78 98 86 89 81 76 76 70 56 54 58 70 65 58 68
38 31 31 30 46 61 74 82 87 91 89 93 95 97 98 97 96 98 98 97 94 91 82 78 69 61 71 73 83 93 98 95 97 94 80 72 71 78 80 97 92 98 79 82 75 69 70 66 70 71 74 87 85 80
31 31 32 46 60 72 80 83 87 91 95 92 94 95 97 98 97 98 97 99 97 94 88 79 61 62 62 60 70 85 92 98 98 89 81 82 88 91 93 84 89 96 92 96 84 89 80 85 97 83 89 92 88 89
32 35 51 64 81 90 89 88 91 90 91 93 93 93 95 95 92 95 95 97 97 95 92 73 64 53 56 61 66 75 80 93 98 90 84 86 89 95 95 97 92 93 94 95 96 96 93 96 95 96 87 78 77 76
36 54 70 90 96 95 92 89 85 83 84 87 89 90 95 95 92 89 97 97 96 92 89 82 70 61 55 60 52 67 81 90 86 88 88 90 87 94 90 93 97 89 94 99 96 96 96 98 98 96 90 86 77 66
55 77 94 97 95 91 87 83 78 76 73 73 84 87 92 96 95 92 86 97 96 93 91 89 80 74 56 55 51 58 77 85 82 86 90 90 88 98 95 98 97 93 91 93 98 98 98 98 96 92 87 82 78 77
80 96 96 92 85 80 79 77 78 76 74 76 74 84 89 96 93 85 85 84 91 99 94 89 79 74 56 56 59 53 72 78 86 89 90 92 89 94 97 98 90 95 97 95 95 98 97 92 88 87 85 80 78 76
97 95 89 83 80 83 86 86 89 86 79 81 80 86 94 96 93 92 91 94 92 98 96 89 88 98 72 72 71 60 64 70 80 89 90 91 87 92 91 89 90 91 92 92 88 90 89 85 84 83 82 79 78 77
94 89 82 82 88 86 84 85 87 93 88 91 92 95 98 93 92 93 95 95 96 97 93 85 91 99 86 77 71 70 78 87 90 91 90 92 96 96 91 90 91 94 92 90 88 88 89 85 84 84 82 79 79 78
91 83 83 80 85 93 93 97 93 87 93 97 95 99 98 96 97 98 99 98 99 98 94 89 89 98 85 75 72 80 87 94 97 92 95 98 96 92 88 86 85 86 88 88 89 88 86 83 80 79 78 77 76 79
86 90 83 83 84 89 91 98 97 98 97 99 99 97 96 97 98 99 98 98 97 92 83 84 87 97 94 88 89 93 96 97 95 90 92 94 92 89 90 89 89 92 92 89 88 87 84 81 78 76 73 71 73 74
92 92 85 85 89 89 88 93 94 95 97 97 91 93 98 98 98 98 98 96 90 88 84 84 89 98 96 96 93 92 89 94 97 99 99 94 93 93 94 96 94 93 89 82 79 79 80 79 76 74 73 72 72 72
90 86 88 93 91 95 96 98 98 98 95 94 96 98 97 98 98 97 92 92 92 87 87 88 95 98 96 94 98 95 93 98 98 99 97 92 92 90 89 88 86 83 81 78 77 75 76 78 79 80 82 85 84 85
93 90 89 96 95 98 98 98 96 96 94 92 91 95 96 92 89 89 84 80 81 84 87 88 94 96 95 94 95 98 94 93 96 92 79 80 82 80 79 77 75 78 79 81 82 81 81 83 86 88 89 89 90 93
94 92 94 95 96 98 98 98 97 91 85 86 86 92 90 86 88 90 92 85 84 87 86 87 85 86 91 92 93 90 93 88 82 83 84 83 82 81 81 82 84 85 86 88 89 90 91 91 91 92 93 94 95 97
96 94 94 93 98 97 93 89 87 84 83 81 87 90 92 90 93 92 91 89 89 90 90 87 89 90 94 94 92 93 90 89 86 82 82 85 89 91 88 85 89 91 94 96 96 97 97 97 98 98 98 98 98 98
94 89 84 87 91 92 91 85 89 87 84 80 85 83 83 80 81 88 88 88 90 92 88 86 88 92 88 85 86 86 87 86 88 94 94 87 74 65 65 68 71 74 78 82 85 89 93 95 97 98 98 98 98 98
95 90 80 82 82 83 82 86 89 93 90 89 80 79 75 73 75 78 83 83 84 82 81 82 80 79 83 84 87 86 90 95 93 85 66 57 58 61 63 64 65 66 68 69 71 73 74 77 78 78 79 82 84 84
91 91 87 81 80 83 84 87 85 92 97 92 82 76 74 77 79 79 79 79 81 83 80 80 84 86 86 87 92 95 88 74 57 53 55 56 58 59 61 64 66 68 69 70 71 73 74 76 79 80 80 79 75 70
92 89 93 87 82 84 87 88 87 88 95 95 93 86 82 84 84 82 83 83 82 81 82 85 91 95 96 95 89 70 51 48 49 53 56 58 60 62 65 67 68 70 70 70 69 69 70 72 74 75 72 65 59 55
92 90 90 91 88 87 87 84 84 85 87 90 90 87 87 86 84 82 81 79 81 89 94 98 98 96 84 56 51 52 54 54 55 56 58 60 62 61 62 63 64 64 63 62 63 65 63 57 52 46 42 40 39 38
91 88 86 86 87 88 87 85 84 84 85 88 93 95 94 95 93 93 92 91 96 96 91 80 63 53 51 50 51 53 55 56 57 58 58 58 59 59 58 56 53 52 50 48 46 46 44 41 40 38 37 37 37 37
89 87 86 85 84 84 89 88 87 86 86 86 89 94 95 91 91 85 81 75 65 57 54 53 52 50 50 52 52 54 54 53 54 54 53 52 51 47 42 39 39 39 40 41 39 39 39 37 36 37 37 40 41 40
84 82 83 82 81 86 85 83 82 84 85 89 90 93 90 80 69 58 56 55 54 53 52 51 50 51 52 51 50 49 49 48 48 47 46 42 37 34 32 30 28 30 32 34 34 35 35 34 33 34 37 38 41 42
72 76 76 78 76 78 79 81 83 83 85 85 84 73 60 58 56 55 55 55 55 54 53 54 52 52 51 49 47 48 50 50 44 40 36 33 32 32 34 36 37 37 36 38 39 36 34 32 31 33 33 35 37 40
68 70 74 72 73 75 76 79 80 81 81 69 52 48 55 55 52 56 56 54 54 53 54 55 54 53 53 52 49 48 43 42 38 33 25 22 25 30 34 37 36 37 37 36 34 34 34 34 33 33 33 36 38 38
61 62 66 70 72 70 74 74 74 71 51 44 48 48 45 49 54 55 56 53 53 56 56 56 55 53 51 50 48 43 36 34 29 24 19 22 24 25 28 34 37 36 34 30 28 33 35 35 35 36 39 40 40 39
57 64 69 70 70 72 72 64 51 43 41 40 39 44 48 47 50 50 50 50 52 53 56 56 55 53 49 45 39 33 27 21 22 23 27 31 34 35 35 31 31 32 33 34 33 32 33 35 36 38 39 40 40 40
62 66 65 67 56 51 51 48 44 40 42 41 40 40 41 43 43 44 46 48 49 50 56 57 54 48 43 40 36 29 24 25 28 28 32 36 38 40 38 33 31 33 34 37 41 42 40 37 36 36 37 38 39 41
63 55 45 44 46 48 48 43 40 40 38 36 34 38 40 41 44 45 44 44 46 50 56 54 50 46 43 37 29 23 20 21 22 27 33 36 37 36 35 35 34 34 35 37 39 42 42 41 40 42 44 44 44 44
40 36 37 39 43 44 42 39 38 34 32 32 34 34 38 40 41 43 44 45 48 55 58 53 49 46 42 37 30 25 26 24 24 26 29 30 31 33 35 36 38 39 39 39 38 38 39 40 41 42 43 43 43 42
32 30 31 35 38 39 40 36 35 37 37 36 36 36 37 38 41 41 43 47 53 59 56 51 48 44 38 27 21 21 23 24 25 28 30 31 34 35 36 36 34 32 32 33 35 35 36 36 36 37 39 43 46 50
32 29 28 31 36 39 38 37 36 39 38 38 38 39 39 38 39 40 47 53 59 56 53 50 47 42 31 24 24 25 25 25 27 29 31 34 35 33 31 30 31 32 33 33 33 35 38 42 45 49 54 57 58 61